,,,PA_Meas_PMT16A,,PR_Meas_QMR101_102,,RH_Meas_QMH101,,SR_Meas_QMS101,,TA_Meas_QMH101,,GenWind,,GenWind,
date,time,status,PA,status,PR,status,RH,status,SR,status,TA,status,DirAvg,status,SpdAvg,
2011-01-28, 00:00:04,VALID,1000.54,VALID,0,VALID,91.7996,VALID,0,VALID,22.16,VALID,126,VALID,0,
2011-01-28, 00:01:04,VALID,1000.54,VALID,0,VALID,91.8301,VALID,0,VALID,22.1405,VALID,126,VALID,0.229687,
2011-01-28, 00:02:04,VALID,1000.55,VALID,0,VALID,91.8988,VALID,0,VALID,22.1617,VALID,126,VALID,0,
2011-01-28, 00:03:04,VALID,1000.51,VALID,0,VALID,91.9598,VALID,0,VALID,22.1405,VALID,126,VALID,0,
2011-01-28, 00:04:04,VALID,1000.5,VALID,0,VALID,91.9674,VALID,0,VALID,22.1405,VALID,126,VALID,0,
2011-01-28, 00:05:04,VALID,1000.51,VALID,0,VALID,91.998,VALID,0,VALID,22.1617,VALID,126,VALID,0,
2011-01-28, 00:06:04,VALID,1000.52,VALID,0,VALID,92.0056,VALID,0,VALID,22.1405,VALID,105,VALID,0.753516,
2011-01-28, 00:07:04,VALID,1000.52,VALID,0,VALID,91.9903,VALID,0,VALID,22.1812,VALID,103,VALID,0.925781,
2011-01-28, 00:08:04,VALID,1000.54,VALID,0,VALID,91.9598,VALID,0,VALID,22.16,VALID,102,VALID,0.549219,
2011-01-28, 00:09:04,VALID,1000.53,VALID,0,VALID,91.9064,VALID,0,VALID,22.16,VALID,102,VALID,0.695313,
2011-01-28, 00:10:04,VALID,1000.49,VALID,0,VALID,91.8454,VALID,0,VALID,22.1617,VALID,105,VALID,0.872656,
2011-01-28, 00:11:04,VALID,1000.5,VALID,0,VALID,91.7157,VALID,0,VALID,22.1227,VALID,104,VALID,0.847656,
2011-01-28, 00:12:04,VALID,1000.52,VALID,0,VALID,91.5173,VALID,0,VALID,22.082,VALID,104,VALID,0.775,
2011-01-28, 00:13:04,VALID,1000.53,VALID,0,VALID,91.3647,VALID,0,VALID,22.082,VALID,104,VALID,0.7375,
2011-01-28, 00:14:04,VALID,1000.51,VALID,0,VALID,91.1968,VALID,0,VALID,22.1015,VALID,104,VALID,0.769141,
2011-01-28, 00:15:04,VALID,1000.51,VALID,0,VALID,91.0595,VALID,0,VALID,22.082,VALID,104,VALID,0.386719,
2011-01-28, 00:16:04,VALID,1000.5,VALID,0,VALID,90.9451,VALID,0,VALID,22.1032,VALID,104,VALID,0.476563,
2011-01-28, 00:17:04,VALID,1000.47,VALID,0,VALID,90.8764,VALID,0,VALID,22.0837,VALID,104,VALID,0.522656,
2011-01-28, 00:18:04,VALID,1000.53,VALID,0,VALID,90.8154,VALID,0,VALID,22.1032,VALID,104,VALID,0.420703,
2011-01-28, 00:19:04,VALID,1000.44,VALID,0,VALID,90.762,VALID,0,VALID,22.0837,VALID,104,VALID,0.338281,
2011-01-28, 00:20:04,VALID,1000.43,VALID,0,VALID,90.678,VALID,0,VALID,22.0837,VALID,104,VALID,0.567578,
2011-01-28, 00:21:04,VALID,1000.45,VALID,0,VALID,90.556,VALID,0,VALID,22.082,VALID,104,VALID,0.241406,
2011-01-28, 00:22:05,VALID,1000.42,VALID,0,VALID,90.4797,VALID,0,VALID,22.1032,VALID,104,VALID,0.399609,
2011-01-28, 00:23:05,VALID,1000.42,VALID,0,VALID,90.3805,VALID,0,VALID,22.0608,VALID,104,VALID,0.552344,
2011-01-28, 00:24:05,VALID,1000.42,VALID,0,VALID,90.2813,VALID,0,VALID,22.0625,VALID,104,VALID,0.391406,
2011-01-28, 00:25:05,VALID,1000.42,VALID,0,VALID,90.2584,VALID,0,VALID,22.0837,VALID,104,VALID,0.277734,
2011-01-28, 00:26:05,VALID,1000.4,VALID,0,VALID,90.2203,VALID,0,VALID,22.0837,VALID,104,VALID,0.153516,
2011-01-28, 00:27:05,VALID,1000.42,VALID,0,VALID,90.205,VALID,0,VALID,22.0625,VALID,104,VALID,0.304688,
2011-01-28, 00:28:05,VALID,1000.41,VALID,0,VALID,90.0982,VALID,0,VALID,22.0625,VALID,104,VALID,0.387891,
2011-01-28, 00:29:05,VALID,1000.4,VALID,0,VALID,89.9761,VALID,0,VALID,22.0625,VALID,104,VALID,0.453906,
2011-01-28, 00:30:05,VALID,1000.4,VALID,0,VALID,89.8922,VALID,0,VALID,22.0625,VALID,104,VALID,0.341797,
2011-01-28, 00:31:05,VALID,1000.42,VALID,0,VALID,89.854,VALID,0,VALID,22.0608,VALID,104,VALID,0.434375,
2011-01-28, 00:32:05,VALID,1000.41,VALID,0,VALID,89.7701,VALID,0,VALID,22.0625,VALID,104,VALID,0.444531,
2011-01-28, 00:33:05,VALID,1000.37,VALID,0,VALID,89.6862,VALID,0,VALID,22.082,VALID,104,VALID,0.264844,
2011-01-28, 00:34:05,VALID,1000.36,VALID,0,VALID,89.6557,VALID,0,VALID,22.1015,VALID,104,VALID,0.305859,
2011-01-28, 00:35:05,VALID,1000.34,VALID,0,VALID,89.6786,VALID,0,VALID,22.121,VALID,104,VALID,0.374219,
2011-01-28, 00:36:05,VALID,1000.36,VALID,0,VALID,89.6328,VALID,0,VALID,22.121,VALID,104,VALID,0.238672,
2011-01-28, 00:37:05,VALID,1000.32,VALID,0,VALID,89.6251,VALID,0,VALID,22.0998,VALID,104,VALID,0.29375,
2011-01-28, 00:38:05,VALID,1000.35,VALID,0,VALID,89.6023,VALID,0,VALID,22.1405,VALID,104,VALID,0.260547,
2011-01-28, 00:39:05,VALID,1000.31,VALID,0,VALID,89.587,VALID,0,VALID,22.1405,VALID,104,VALID,0.253906,
2011-01-28, 00:40:05,VALID,1000.29,VALID,0,VALID,89.5336,VALID,0.112286,VALID,22.1405,VALID,104,VALID,0.371094,
2011-01-28, 00:41:05,VALID,1000.29,VALID,0,VALID,89.5107,VALID,0,VALID,22.1194,VALID,104,VALID,0.390234,
2011-01-28, 00:42:05,VALID,1000.26,VALID,0,VALID,89.4268,VALID,0,VALID,22.1227,VALID,104,VALID,0.416797,
2011-01-28, 00:43:05,VALID,1000.22,VALID,0,VALID,89.3657,VALID,0,VALID,22.121,VALID,104,VALID,0.330859,
2011-01-28, 00:44:05,VALID,1000.21,VALID,0,VALID,89.1826,VALID,0,VALID,22.1227,VALID,104,VALID,0.542578,
2011-01-28, 00:45:05,VALID,1000.21,VALID,0,VALID,89.1216,VALID,0,VALID,22.1422,VALID,104,VALID,0.676953,
2011-01-28, 00:46:05,VALID,1000.21,VALID,0,VALID,89.1903,VALID,0,VALID,22.1032,VALID,104,VALID,0.63125,
2011-01-28, 00:47:05,VALID,1000.2,VALID,0,VALID,89.3352,VALID,0,VALID,22.082,VALID,104,VALID,0.563672,
2011-01-28, 00:48:05,VALID,1000.21,VALID,0,VALID,89.4115,VALID,0,VALID,22.1015,VALID,104,VALID,0.489844,
2011-01-28, 00:49:05,VALID,1000.2,VALID,0,VALID,89.4268,VALID,0,VALID,22.1227,VALID,104,VALID,0.503906,
2011-01-28, 00:50:05,VALID,1000.22,VALID,0,VALID,89.4954,VALID,0,VALID,22.082,VALID,104,VALID,0.399609,
2011-01-28, 00:51:05,VALID,1000.2,VALID,0,VALID,89.5641,VALID,0,VALID,22.1032,VALID,104,VALID,0.308594,
2011-01-28, 00:52:05,VALID,1000.2,VALID,0,VALID,89.5946,VALID,0,VALID,22.1032,VALID,104,VALID,0.200391,
2011-01-28, 00:53:05,VALID,1000.2,VALID,0,VALID,89.6328,VALID,0,VALID,22.1032,VALID,104,VALID,0.314453,
2011-01-28, 00:54:05,VALID,1000.21,VALID,0,VALID,89.6786,VALID,0,VALID,22.0642,VALID,104,VALID,0.316406,
2011-01-28, 00:55:05,VALID,1000.2,VALID,0,VALID,89.6709,VALID,0,VALID,22.0642,VALID,104,VALID,0.491016,
2011-01-28, 00:56:05,VALID,1000.17,VALID,0,VALID,89.5031,VALID,0,VALID,22.0447,VALID,104,VALID,0.630859,
2011-01-28, 00:57:05,VALID,1000.19,VALID,0,VALID,89.3886,VALID,0,VALID,22.0447,VALID,104,VALID,0.235547,
2011-01-28, 00:58:05,VALID,1000.18,VALID,0,VALID,89.3276,VALID,0,VALID,22.0252,VALID,104,VALID,0.286328,
2011-01-28, 00:59:05,VALID,1000.15,VALID,0,VALID,89.3505,VALID,0,VALID,22.0252,VALID,104,VALID,0.327734,
2011-01-28, 01:00:05,VALID,1000.15,VALID,0,VALID,89.32,VALID,0,VALID,22.004,VALID,104,VALID,0.782812,
2011-01-28, 01:01:05,VALID,1000.17,VALID,0,VALID,89.2589,VALID,0,VALID,22.004,VALID,104,VALID,0.502344,
2011-01-28, 01:02:05,VALID,1000.16,VALID,0,VALID,89.2971,VALID,0,VALID,22.0252,VALID,104,VALID,0.546094,
2011-01-28, 01:03:05,VALID,1000.16,VALID,0,VALID,89.2589,VALID,0,VALID,22.0252,VALID,104,VALID,0.59375,
2011-01-28, 01:04:05,VALID,1000.13,VALID,0,VALID,89.2284,VALID,0,VALID,22.0252,VALID,104,VALID,0.608984,
2011-01-28, 01:05:05,VALID,1000.12,VALID,0,VALID,89.2055,VALID,0,VALID,22.0252,VALID,104,VALID,0.545313,
2011-01-28, 01:06:05,VALID,1000.13,VALID,0,VALID,89.236,VALID,0,VALID,22.004,VALID,104,VALID,0.483203,
2011-01-28, 01:07:05,VALID,1000.08,VALID,0,VALID,89.2513,VALID,0,VALID,22.0252,VALID,104,VALID,0.285937,
2011-01-28, 01:08:05,VALID,1000.03,VALID,0,VALID,89.2818,VALID,0,VALID,22.0057,VALID,104,VALID,0.16875,
2011-01-28, 01:09:05,VALID,1000.04,VALID,0,VALID,89.2818,VALID,0,VALID,22.0057,VALID,104,VALID,0.188281,
2011-01-28, 01:10:05,VALID,1000.01,VALID,0,VALID,89.2894,VALID,0,VALID,21.9862,VALID,104,VALID,0.00742187,
2011-01-28, 01:11:05,VALID,999.974,VALID,0,VALID,89.3276,VALID,0,VALID,21.9862,VALID,104,VALID,0,
2011-01-28, 01:12:05,VALID,999.954,VALID,0,VALID,89.5794,VALID,0,VALID,22.004,VALID,104,VALID,0,
2011-01-28, 01:13:05,VALID,999.952,VALID,0,VALID,89.6862,VALID,0,VALID,21.9845,VALID,104,VALID,0,
2011-01-28, 01:14:05,VALID,999.93,VALID,0,VALID,89.7243,VALID,0,VALID,21.965,VALID,104,VALID,0,
2011-01-28, 01:15:05,VALID,999.91,VALID,0,VALID,89.7014,VALID,0,VALID,21.9633,VALID,104,VALID,0,
2011-01-28, 01:16:05,VALID,999.9,VALID,0,VALID,89.5717,VALID,0,VALID,21.965,VALID,104,VALID,0.535937,
2011-01-28, 01:17:05,VALID,999.897,VALID,0,VALID,89.5489,VALID,0,VALID,21.9845,VALID,104,VALID,0.677734,
2011-01-28, 01:18:05,VALID,999.868,VALID,0,VALID,89.4878,VALID,0,VALID,21.9845,VALID,110,VALID,0.705078,
2011-01-28, 01:19:05,VALID,999.833,VALID,0,VALID,89.4191,VALID,0,VALID,21.9845,VALID,119,VALID,0.575781,
2011-01-28, 01:20:05,VALID,999.832,VALID,0,VALID,89.4268,VALID,0,VALID,21.9845,VALID,119,VALID,0.468359,
2011-01-28, 01:21:05,VALID,999.815,VALID,0,VALID,89.5336,VALID,0,VALID,21.965,VALID,118,VALID,0.722656,
2011-01-28, 01:22:05,VALID,999.774,VALID,0,VALID,89.587,VALID,0,VALID,21.9455,VALID,114,VALID,0.818359,
2011-01-28, 01:23:05,VALID,999.744,VALID,0,VALID,89.6175,VALID,0,VALID,21.9455,VALID,102,VALID,0.857031,
2011-01-28, 01:24:05,VALID,999.699,VALID,0,VALID,89.7243,VALID,0,VALID,21.926,VALID,102,VALID,0.651172,
2011-01-28, 01:25:05,VALID,999.664,VALID,0,VALID,89.7701,VALID,0,VALID,21.926,VALID,102,VALID,0.744922,
2011-01-28, 01:26:05,VALID,999.644,VALID,0,VALID,89.7014,VALID,0,VALID,21.9048,VALID,81,VALID,0.931641,
2011-01-28, 01:27:05,VALID,999.627,VALID,0,VALID,89.5641,VALID,0,VALID,21.965,VALID,81,VALID,0.708594,
2011-01-28, 01:28:05,VALID,999.614,VALID,0,VALID,89.5031,VALID,0,VALID,21.9455,VALID,81,VALID,0.859375,
2011-01-28, 01:29:05,VALID,999.568,VALID,0,VALID,89.4649,VALID,0,VALID,21.965,VALID,81,VALID,0.502734,
2011-01-28, 01:30:05,VALID,999.599,VALID,0,VALID,89.4268,VALID,0,VALID,21.965,VALID,81,VALID,0.253906,
2011-01-28, 01:31:05,VALID,999.591,VALID,0,VALID,89.4726,VALID,0,VALID,21.9438,VALID,81,VALID,0.162109,
2011-01-28, 01:32:05,VALID,999.579,VALID,0,VALID,89.5489,VALID,0,VALID,21.965,VALID,81,VALID,0.368359,
2011-01-28, 01:33:05,VALID,999.537,VALID,0,VALID,89.5565,VALID,0,VALID,21.9455,VALID,81,VALID,0,
2011-01-28, 01:34:05,VALID,999.529,VALID,0,VALID,89.5412,VALID,0,VALID,21.9065,VALID,81,VALID,0,
2011-01-28, 01:35:05,VALID,999.503,VALID,0,VALID,89.5717,VALID,0,VALID,21.9065,VALID,81,VALID,0,
2011-01-28, 01:36:05,VALID,999.492,VALID,0,VALID,89.6786,VALID,0,VALID,21.887,VALID,81,VALID,0,
2011-01-28, 01:37:05,VALID,999.458,VALID,0,VALID,89.7549,VALID,0,VALID,21.8658,VALID,81,VALID,0,
2011-01-28, 01:38:05,VALID,999.438,VALID,0,VALID,89.8083,VALID,0,VALID,21.887,VALID,81,VALID,0.201562,
2011-01-28, 01:39:05,VALID,999.408,VALID,0,VALID,89.8769,VALID,0,VALID,21.9065,VALID,81,VALID,0.183203,
2011-01-28, 01:40:05,VALID,999.433,VALID,0,VALID,89.8693,VALID,0,VALID,21.9065,VALID,81,VALID,0.23125,
2011-01-28, 01:41:05,VALID,999.398,VALID,0,VALID,89.8617,VALID,0,VALID,21.9065,VALID,81,VALID,0.230859,
2011-01-28, 01:42:05,VALID,999.398,VALID,0,VALID,89.8311,VALID,0,VALID,21.926,VALID,81,VALID,0.289844,
2011-01-28, 01:43:05,VALID,999.35,VALID,0,VALID,89.793,VALID,0,VALID,21.9065,VALID,81,VALID,0.525,
2011-01-28, 01:44:05,VALID,999.325,VALID,0,VALID,89.7625,VALID,0,VALID,21.8853,VALID,81,VALID,0.24375,
2011-01-28, 01:45:05,VALID,999.29,VALID,0,VALID,89.7243,VALID,0,VALID,21.9065,VALID,81,VALID,0.230469,
2011-01-28, 01:46:05,VALID,999.304,VALID,0,VALID,89.6557,VALID,0,VALID,21.9065,VALID,81,VALID,0.373047,
2011-01-28, 01:47:05,VALID,999.284,VALID,0,VALID,89.5489,VALID,0,VALID,21.887,VALID,81,VALID,0.35625,
2011-01-28, 01:48:05,VALID,999.26,VALID,0,VALID,89.4573,VALID,0,VALID,21.887,VALID,81,VALID,0.308203,
2011-01-28, 01:49:05,VALID,999.279,VALID,0,VALID,89.3963,VALID,0,VALID,21.887,VALID,81,VALID,0.273047,
2011-01-28, 01:50:05,VALID,999.236,VALID,0,VALID,89.3657,VALID,0.112286,VALID,21.887,VALID,81,VALID,0.235547,
2011-01-28, 01:51:05,VALID,999.231,VALID,0,VALID,89.3352,VALID,0,VALID,21.8658,VALID,81,VALID,0.20625,
2011-01-28, 01:52:05,VALID,999.228,VALID,0,VALID,89.3123,VALID,0,VALID,21.8463,VALID,81,VALID,0.262891,
2011-01-28, 01:53:05,VALID,999.207,VALID,0,VALID,89.3352,VALID,0,VALID,21.8675,VALID,81,VALID,0.385938,
2011-01-28, 01:54:05,VALID,999.204,VALID,0,VALID,89.3047,VALID,0,VALID,21.8658,VALID,81,VALID,0.3625,
2011-01-28, 01:55:05,VALID,999.194,VALID,0,VALID,89.2818,VALID,0,VALID,21.8268,VALID,81,VALID,0.180078,
2011-01-28, 01:56:05,VALID,999.174,VALID,0,VALID,89.2971,VALID,0,VALID,21.848,VALID,81,VALID,0.407813,
2011-01-28, 01:57:05,VALID,999.177,VALID,0,VALID,89.2894,VALID,0,VALID,21.8496,VALID,81,VALID,0.540625,
2011-01-28, 01:58:05,VALID,999.185,VALID,0,VALID,89.3428,VALID,0,VALID,21.8692,VALID,81,VALID,0.314453,
2011-01-28, 01:59:05,VALID,999.204,VALID,0,VALID,89.2818,VALID,0,VALID,21.8692,VALID,81,VALID,0.390234,
2011-01-28, 02:00:05,VALID,999.208,VALID,0,VALID,89.3505,VALID,0,VALID,21.8285,VALID,81,VALID,0.614453,
2011-01-28, 02:01:05,VALID,999.196,VALID,0,VALID,89.4573,VALID,0,VALID,21.8301,VALID,138,VALID,0.903906,
2011-01-28, 02:02:05,VALID,999.194,VALID,0,VALID,89.5336,VALID,0,VALID,21.8301,VALID,138,VALID,0.752344,
2011-01-28, 02:03:05,VALID,999.195,VALID,0,VALID,89.5717,VALID,0,VALID,21.809,VALID,145,VALID,1.01719,
2011-01-28, 02:04:05,VALID,999.17,VALID,0,VALID,89.4954,VALID,0,VALID,21.8301,VALID,162,VALID,1.1582,
2011-01-28, 02:05:05,VALID,999.156,VALID,0,VALID,89.3123,VALID,0,VALID,21.8496,VALID,160,VALID,0.803516,
2011-01-28, 02:06:05,VALID,999.146,VALID,0,VALID,89.1597,VALID,0,VALID,21.8692,VALID,155,VALID,0.9625,
2011-01-28, 02:07:05,VALID,999.123,VALID,0,VALID,88.9995,VALID,0,VALID,21.8692,VALID,155,VALID,0.832812,
2011-01-28, 02:08:05,VALID,999.139,VALID,0,VALID,88.9461,VALID,0,VALID,21.8692,VALID,145,VALID,0.500391,
2011-01-28, 02:09:05,VALID,999.115,VALID,0,VALID,88.9385,VALID,0,VALID,21.8285,VALID,145,VALID,0.623438,
2011-01-28, 02:10:05,VALID,999.104,VALID,0,VALID,89.0224,VALID,0,VALID,21.7895,VALID,145,VALID,0.674219,
2011-01-28, 02:11:05,VALID,999.071,VALID,0,VALID,89.114,VALID,0,VALID,21.8106,VALID,145,VALID,0.749609,
2011-01-28, 02:12:05,VALID,999.062,VALID,0,VALID,89.1445,VALID,0,VALID,21.77,VALID,145,VALID,0.734766,
2011-01-28, 02:13:05,VALID,999.091,VALID,0,VALID,89.0071,VALID,0,VALID,21.8301,VALID,145,VALID,0.371484,
2011-01-28, 02:14:05,VALID,999.133,VALID,0,VALID,88.8164,VALID,0,VALID,21.8496,VALID,145,VALID,0.527734,
2011-01-28, 02:15:05,VALID,999.124,VALID,0,VALID,88.7096,VALID,0,VALID,21.8692,VALID,145,VALID,0.46875,
2011-01-28, 02:16:05,VALID,999.098,VALID,0,VALID,88.6333,VALID,0,VALID,21.848,VALID,145,VALID,0.349219,
2011-01-28, 02:17:05,VALID,999.074,VALID,0,VALID,88.6333,VALID,0,VALID,21.8692,VALID,145,VALID,0.614453,
2011-01-28, 02:18:05,VALID,999.092,VALID,0,VALID,88.6791,VALID,0,VALID,21.848,VALID,145,VALID,0.396094,
2011-01-28, 02:19:05,VALID,999.091,VALID,0,VALID,88.702,VALID,0,VALID,21.8285,VALID,145,VALID,0.391406,
2011-01-28, 02:20:05,VALID,999.092,VALID,0,VALID,88.6867,VALID,0,VALID,21.8496,VALID,145,VALID,0.238281,
2011-01-28, 02:21:05,VALID,999.122,VALID,0,VALID,88.763,VALID,0,VALID,21.8301,VALID,145,VALID,0,
2011-01-28, 02:22:05,VALID,999.135,VALID,0,VALID,88.763,VALID,0,VALID,21.8301,VALID,145,VALID,0,
2011-01-28, 02:23:05,VALID,999.139,VALID,0,VALID,88.7859,VALID,0,VALID,21.8106,VALID,145,VALID,0,
2011-01-28, 02:24:05,VALID,999.131,VALID,0,VALID,88.8164,VALID,0,VALID,21.7911,VALID,145,VALID,0,
2011-01-28, 02:25:05,VALID,999.147,VALID,0,VALID,88.8317,VALID,0,VALID,21.8106,VALID,145,VALID,0,
2011-01-28, 02:26:05,VALID,999.15,VALID,0,VALID,88.8774,VALID,0,VALID,21.77,VALID,145,VALID,0,
2011-01-28, 02:27:05,VALID,999.172,VALID,0,VALID,88.9385,VALID,0,VALID,21.7895,VALID,145,VALID,0,
2011-01-28, 02:28:05,VALID,999.177,VALID,0,VALID,88.9919,VALID,0,VALID,21.7911,VALID,145,VALID,0,
2011-01-28, 02:29:05,VALID,999.185,VALID,0,VALID,89.0071,VALID,0,VALID,21.7716,VALID,145,VALID,0,
2011-01-28, 02:30:05,VALID,999.151,VALID,0,VALID,89.0682,VALID,0,VALID,21.7716,VALID,145,VALID,0,
2011-01-28, 02:31:05,VALID,999.18,VALID,0,VALID,89.2132,VALID,0,VALID,21.7716,VALID,145,VALID,0.5625,
2011-01-28, 02:32:05,VALID,999.163,VALID,0,VALID,89.2284,VALID,0,VALID,21.7521,VALID,145,VALID,0.434766,
2011-01-28, 02:33:05,VALID,999.142,VALID,0,VALID,89.2513,VALID,0,VALID,21.731,VALID,145,VALID,0.223047,
2011-01-28, 02:34:05,VALID,999.175,VALID,0,VALID,89.3428,VALID,0,VALID,21.7115,VALID,145,VALID,0.171484,
2011-01-28, 02:35:05,VALID,999.153,VALID,0,VALID,89.4344,VALID,0,VALID,21.7115,VALID,145,VALID,0,
2011-01-28, 02:36:05,VALID,999.14,VALID,0,VALID,89.4878,VALID,0,VALID,21.7115,VALID,145,VALID,0,
2011-01-28, 02:37:05,VALID,999.126,VALID,0,VALID,89.4649,VALID,0,VALID,21.692,VALID,145,VALID,0,
2011-01-28, 02:38:05,VALID,999.126,VALID,0,VALID,89.442,VALID,0,VALID,21.6725,VALID,145,VALID,0,
2011-01-28, 02:39:05,VALID,999.138,VALID,0,VALID,89.4726,VALID,0,VALID,21.6335,VALID,145,VALID,0,
2011-01-28, 02:40:05,VALID,999.112,VALID,0,VALID,89.5412,VALID,0,VALID,21.614,VALID,145,VALID,0,
2011-01-28, 02:41:05,VALID,999.15,VALID,0,VALID,89.7396,VALID,0,VALID,21.5945,VALID,145,VALID,0,
2011-01-28, 02:42:05,VALID,999.166,VALID,0,VALID,89.9761,VALID,0,VALID,21.575,VALID,145,VALID,0,
2011-01-28, 02:43:05,VALID,999.122,VALID,0,VALID,90.1974,VALID,0,VALID,21.5555,VALID,145,VALID,0,
2011-01-28, 02:44:05,VALID,999.147,VALID,0,VALID,90.3194,VALID,0,VALID,21.536,VALID,145,VALID,0,
2011-01-28, 02:45:05,VALID,999.149,VALID,0,VALID,90.3881,VALID,0,VALID,21.5165,VALID,145,VALID,0,
2011-01-28, 02:46:05,VALID,999.133,VALID,0,VALID,90.4568,VALID,0,VALID,21.4986,VALID,145,VALID,0,
2011-01-28, 02:47:05,VALID,999.16,VALID,0,VALID,90.4873,VALID,0,VALID,21.4385,VALID,145,VALID,0,
2011-01-28, 02:48:05,VALID,999.1,VALID,0,VALID,90.5407,VALID,0,VALID,21.4385,VALID,145,VALID,0,
2011-01-28, 02:49:05,VALID,999.113,VALID,0,VALID,90.678,VALID,0,VALID,21.4596,VALID,145,VALID,0,
2011-01-28, 02:50:05,VALID,999.087,VALID,0,VALID,90.8154,VALID,0,VALID,21.4385,VALID,145,VALID,0,
2011-01-28, 02:51:05,VALID,999.117,VALID,0,VALID,90.8764,VALID,0,VALID,21.4791,VALID,145,VALID,0,
2011-01-28, 02:52:05,VALID,999.081,VALID,0,VALID,90.9374,VALID,0,VALID,21.4385,VALID,145,VALID,0,
2011-01-28, 02:53:05,VALID,999.065,VALID,0,VALID,91.0137,VALID,0,VALID,21.4385,VALID,145,VALID,0,
2011-01-28, 02:54:05,VALID,999.076,VALID,0,VALID,91.0214,VALID,0,VALID,21.419,VALID,145,VALID,0,
2011-01-28, 02:55:05,VALID,999.06,VALID,0,VALID,91.0366,VALID,0,VALID,21.3995,VALID,145,VALID,0,
2011-01-28, 02:56:05,VALID,999.066,VALID,0,VALID,91.1587,VALID,0,VALID,21.3995,VALID,145,VALID,0,
2011-01-28, 02:57:05,VALID,999.077,VALID,0,VALID,91.174,VALID,0,VALID,21.3995,VALID,145,VALID,0,
2011-01-28, 02:58:05,VALID,999.048,VALID,0,VALID,91.0595,VALID,0,VALID,21.341,VALID,145,VALID,0,
2011-01-28, 02:59:05,VALID,999.056,VALID,0,VALID,91.029,VALID,0,VALID,21.2825,VALID,145,VALID,0,
2011-01-28, 03:00:05,VALID,999.043,VALID,0,VALID,90.968,VALID,0,VALID,21.2435,VALID,145,VALID,0,
2011-01-28, 03:01:05,VALID,999.028,VALID,0,VALID,91.0214,VALID,0,VALID,21.2045,VALID,145,VALID,0,
2011-01-28, 03:02:05,VALID,999.019,VALID,0,VALID,91.0977,VALID,0,VALID,21.1655,VALID,145,VALID,0,
2011-01-28, 03:03:05,VALID,998.998,VALID,0,VALID,91.2045,VALID,0,VALID,21.1671,VALID,145,VALID,0,
2011-01-28, 03:04:05,VALID,998.982,VALID,0,VALID,91.3571,VALID,0,VALID,21.1671,VALID,145,VALID,0,
2011-01-28, 03:05:04,VALID,998.965,VALID,0,VALID,91.5326,VALID,0,VALID,21.146,VALID,145,VALID,0,
2011-01-28, 03:06:04,VALID,998.994,VALID,0,VALID,91.6775,VALID,0,VALID,21.1671,VALID,145,VALID,0,
2011-01-28, 03:07:04,VALID,999.003,VALID,0,VALID,91.7996,VALID,0,VALID,21.1671,VALID,145,VALID,0,
2011-01-28, 03:08:04,VALID,998.979,VALID,0,VALID,91.8759,VALID,0,VALID,21.146,VALID,145,VALID,0,
2011-01-28, 03:09:04,VALID,998.966,VALID,0,VALID,91.9445,VALID,0,VALID,21.146,VALID,145,VALID,0,
2011-01-28, 03:10:04,VALID,998.982,VALID,0,VALID,92.0056,VALID,0,VALID,21.146,VALID,145,VALID,0,
2011-01-28, 03:11:04,VALID,998.978,VALID,0,VALID,92.0743,VALID,0,VALID,21.1671,VALID,145,VALID,0,
2011-01-28, 03:12:04,VALID,998.978,VALID,0,VALID,92.1048,VALID,0,VALID,21.1671,VALID,145,VALID,0,
2011-01-28, 03:13:04,VALID,998.968,VALID,0,VALID,92.1429,VALID,0,VALID,21.1265,VALID,145,VALID,0,
2011-01-28, 03:14:04,VALID,998.99,VALID,0,VALID,92.1811,VALID,0,VALID,21.185,VALID,145,VALID,0,
2011-01-28, 03:15:04,VALID,998.977,VALID,0,VALID,92.2726,VALID,0,VALID,21.2256,VALID,145,VALID,0,
2011-01-28, 03:16:04,VALID,998.948,VALID,0,VALID,92.3337,VALID,0,VALID,21.2841,VALID,145,VALID,0,
2011-01-28, 03:17:04,VALID,998.951,VALID,0,VALID,92.3566,VALID,0,VALID,21.2825,VALID,145,VALID,0,
2011-01-28, 03:18:04,VALID,998.925,VALID,0,VALID,92.3642,VALID,0,VALID,21.3215,VALID,145,VALID,0,
2011-01-28, 03:19:04,VALID,998.905,VALID,0,VALID,92.3947,VALID,0,VALID,21.3215,VALID,145,VALID,0,
2011-01-28, 03:20:04,VALID,998.89,VALID,0,VALID,92.3718,VALID,0,VALID,21.3605,VALID,145,VALID,0,
2011-01-28, 03:21:04,VALID,998.853,VALID,0,VALID,92.3413,VALID,0,VALID,21.38,VALID,145,VALID,0,
2011-01-28, 03:22:04,VALID,998.798,VALID,0,VALID,92.3489,VALID,0,VALID,21.4011,VALID,145,VALID,0,
2011-01-28, 03:23:04,VALID,998.795,VALID,0,VALID,92.3184,VALID,0,VALID,21.4206,VALID,145,VALID,0,
2011-01-28, 03:24:04,VALID,998.787,VALID,0,VALID,92.2803,VALID,0,VALID,21.419,VALID,145,VALID,0,
2011-01-28, 03:25:04,VALID,998.75,VALID,0,VALID,92.2574,VALID,0,VALID,21.4401,VALID,145,VALID,0,
2011-01-28, 03:26:04,VALID,998.762,VALID,0,VALID,92.1887,VALID,0,VALID,21.419,VALID,145,VALID,0,
2011-01-28, 03:27:04,VALID,998.778,VALID,0,VALID,92.1124,VALID,0,VALID,21.4401,VALID,145,VALID,0,
2011-01-28, 03:28:04,VALID,998.755,VALID,0,VALID,92.0285,VALID,0,VALID,21.3995,VALID,145,VALID,0,
2011-01-28, 03:29:04,VALID,998.758,VALID,0,VALID,91.9522,VALID,0,VALID,21.419,VALID,145,VALID,0.735156,
2011-01-28, 03:30:04,VALID,998.734,VALID,0,VALID,91.8606,VALID,0,VALID,21.3995,VALID,145,VALID,0.427344,
2011-01-28, 03:31:04,VALID,998.725,VALID,0,VALID,91.7309,VALID,0,VALID,21.3816,VALID,145,VALID,0.511719,
2011-01-28, 03:32:04,VALID,998.727,VALID,0,VALID,91.6394,VALID,0,VALID,21.3816,VALID,145,VALID,0.434375,
2011-01-28, 03:33:04,VALID,998.756,VALID,0,VALID,91.5249,VALID,0,VALID,21.3426,VALID,145,VALID,0.0285156,
2011-01-28, 03:34:04,VALID,998.735,VALID,0,VALID,91.4791,VALID,0,VALID,21.3426,VALID,145,VALID,0,
2011-01-28, 03:35:04,VALID,998.742,VALID,0,VALID,91.4791,VALID,0,VALID,21.302,VALID,145,VALID,0,
2011-01-28, 03:36:04,VALID,998.75,VALID,0,VALID,91.4639,VALID,0,VALID,21.2825,VALID,145,VALID,0,
2011-01-28, 03:37:04,VALID,998.776,VALID,0,VALID,91.502,VALID,0,VALID,21.302,VALID,145,VALID,0,
2011-01-28, 03:38:04,VALID,998.776,VALID,0,VALID,91.5402,VALID,0,VALID,21.3036,VALID,145,VALID,0,
2011-01-28, 03:39:04,VALID,998.799,VALID,0,VALID,91.5631,VALID,0,VALID,21.2825,VALID,145,VALID,0.121094,
2011-01-28, 03:40:04,VALID,998.795,VALID,0,VALID,91.5936,VALID,0,VALID,21.2435,VALID,145,VALID,0.285937,
2011-01-28, 03:41:04,VALID,998.78,VALID,0,VALID,91.5783,VALID,0,VALID,21.2646,VALID,145,VALID,0.376953,
2011-01-28, 03:42:04,VALID,998.774,VALID,0,VALID,91.5936,VALID,0,VALID,21.224,VALID,145,VALID,0.431641,
2011-01-28, 03:43:04,VALID,998.776,VALID,0,VALID,91.6699,VALID,0,VALID,21.224,VALID,145,VALID,0.421484,
2011-01-28, 03:44:04,VALID,998.821,VALID,0,VALID,91.7385,VALID,0,VALID,21.2646,VALID,145,VALID,0.451562,
2011-01-28, 03:45:04,VALID,998.785,VALID,0,VALID,91.8148,VALID,0,VALID,21.2435,VALID,145,VALID,0.204297,
2011-01-28, 03:46:04,VALID,998.798,VALID,0,VALID,91.8606,VALID,0,VALID,21.3036,VALID,145,VALID,0.172266,
2011-01-28, 03:47:04,VALID,998.788,VALID,0,VALID,91.8835,VALID,0,VALID,21.3036,VALID,145,VALID,0.0316406,
2011-01-28, 03:48:04,VALID,998.78,VALID,0,VALID,91.8683,VALID,0,VALID,21.302,VALID,145,VALID,0.084375,
2011-01-28, 03:49:04,VALID,998.806,VALID,0,VALID,91.8988,VALID,0,VALID,21.3426,VALID,145,VALID,0,
2011-01-28, 03:50:04,VALID,998.818,VALID,0,VALID,91.8835,VALID,0,VALID,21.3621,VALID,145,VALID,0,